This is the latest recevied weather packets stored in our database for station/object KC3SOZ. If no packets are shown the sender has not sent any weather packets the latest 10 day(s).
| Time | Temp. | Humidity | Pressure | Rain* | Wind** | Luminosity | Snow |
|---|---|---|---|---|---|---|---|
| 1778167188 | 13.89° C | 53% | 1012.8 hPa | 0 mm | - | 786 W/m² | - |
| 1778166884 | 13.33° C | 50% | 1013 hPa | 0 mm | - | 767 W/m² | - |
| 1778166581 | 13.89° C | 51% | 1013.3 hPa | 0 mm | - | 420 W/m² | - |
| 1778166278 | 13.89° C | 57% | 1013.3 hPa | 0 mm | - | 744 W/m² | - |
| 1778165974 | 13.89° C | 58% | 1013.4 hPa | 0 mm | - | 734 W/m² | - |
| 1778165670 | 13.33° C | 57% | 1013.4 hPa | 0 mm | - | 720 W/m² | - |
| 1778165367 | 12.78° C | 54% | 1013.3 hPa | 0 mm | - | 706 W/m² | - |
| 1778165064 | 12.22° C | 55% | 1013.5 hPa | 0 mm | - | 694 W/m² | - |
| 1778164761 | 12.22° C | 59% | 1013.5 hPa | 0 mm | - | 682 W/m² | - |
| 1778164459 | 12.78° C | 60% | 1013.2 hPa | 0 mm | - | 670 W/m² | - |
| 1778164155 | 13.33° C | 54% | 1013.5 hPa | 0 mm | - | 656 W/m² | - |
| 1778163851 | 12.22° C | 63% | 1013.6 hPa | 0 mm | - | 642 W/m² | - |
| 1778163548 | 12.22° C | 60% | 1013.4 hPa | 0 mm | - | 628 W/m² | - |
| 1778163244 | 12.22° C | 58% | 1013.6 hPa | 0 mm | - | 617 W/m² | - |
| 1778162941 | 11.67° C | 58% | 1013.8 hPa | 0 mm | - | 605 W/m² | - |
| 1778162638 | 11.67° C | 58% | 1013.7 hPa | 0 mm | - | 591 W/m² | - |
| 1778162336 | 11.67° C | 58% | 1013.6 hPa | 0 mm | - | 580 W/m² | - |
| 1778162032 | 11.67° C | 65% | 1013.7 hPa | 0 mm | - | 563 W/m² | - |
| 1778161730 | 12.22° C | 64% | 1013.9 hPa | 0 mm | - | 546 W/m² | - |
| 1778161425 | 11.67° C | 65% | 1013.8 hPa | 0 mm | - | 527 W/m² | - |
| 1778161122 | 11.67° C | 61% | 1013.9 hPa | 0 mm | - | 519 W/m² | - |
| 1778160817 | 11.11° C | 65% | 1013.9 hPa | 0 mm | - | 506 W/m² | - |
| 1778160516 | 11.11° C | 64% | 1014.1 hPa | 0 mm | - | 491 W/m² | - |
| 1778160212 | 11.11° C | 63% | 1014 hPa | 0 mm | - | 479 W/m² | - |
| 1778159909 | 11.11° C | 67% | 1014.1 hPa | 0 mm | - | 461 W/m² | - |
* Rain latest hour (hover to see other rain measurements)
** Current wind speed in m/s (hover to see current wind gust speed)